EN

Hourly Weather Narayanganj

Today, 1 December, Tuesday

Time Temperature Precipitation Wind Pressure Humidity
00:00 +23°C° 0 mm 2 mps 760 mmHg 59%
01:00 +23°C° 0 mm 2 mps 760 mmHg 61%
02:00 +21°C° 0 mm 2 mps 760 mmHg 64%
03:00 +22°C° 0 mm 1 mps 759 mmHg 67%
04:00 +22°C° 0 mm 1 mps 760 mmHg 69%
05:00 +21°C° 0 mm 1 mps 760 mmHg 71%
06:00 +21°C° 0 mm 1 mps 760 mmHg 75%
07:00 +22°C° 0 mm 1 mps 760 mmHg 69%
08:00 +24°C° 0 mm 1 mps 761 mmHg 63%
09:00 +26°C° 0 mm 1 mps 762 mmHg 57%
10:00 +25°C° 0 mm 0 mps 761 mmHg 51%
11:00 +27°C° 0 mm 0 mps 761 mmHg 44%
12:00 +28°C° 0 mm 0 mps 760 mmHg 37%
13:00 +29°C° 0 mm 0 mps 759 mmHg 34%
14:00 +31°C° 0 mm 1 mps 759 mmHg 32%
15:00 +31°C° 0 mm 1 mps 758 mmHg 29%
16:00 +30°C° 0 mm 1 mps 758 mmHg 34%
17:00 +28°C° 0 mm 1 mps 758 mmHg 38%
18:00 +27°C° 0 mm 1 mps 758 mmHg 43%
19:00 +26°C° 0 mm 1 mps 758 mmHg 45%
20:00 +26°C° 0 mm 1 mps 759 mmHg 47%
21:00 +25°C° 0 mm 1 mps 759 mmHg 49%
22:00 +25°C° 0 mm 1 mps 759 mmHg 51%
23:00 +24°C° 0 mm 1 mps 759 mmHg 52%

Tomorrow, 2 December, Wednesday

Time Temperature Precipitation Wind Pressure Humidity
00:00 +24°C° 0 mm 1 mps 759 mmHg 54%
01:00 +24°C° 0 mm 1 mps 759 mmHg 56%
02:00 +23°C° 0 mm 1 mps 759 mmHg 57%
03:00 +23°C° 0 mm 1 mps 758 mmHg 59%
04:00 +22°C° 0 mm 1 mps 758 mmHg 60%
05:00 +22°C° 0 mm 1 mps 759 mmHg 62%
06:00 +22°C° 0 mm 1 mps 759 mmHg 64%
07:00 +23°C° 0 mm 1 mps 759 mmHg 60%
08:00 +25°C° 0 mm 1 mps 760 mmHg 55%
09:00 +26°C° 0 mm 1 mps 760 mmHg 51%
10:00 +27°C° 0 mm 1 mps 760 mmHg 47%
11:00 +27°C° 0 mm 0 mps 759 mmHg 43%
12:00 +28°C° 0 mm 0 mps 759 mmHg 39%
13:00 +28°C° 0 mm 0 mps 758 mmHg 37%
14:00 +31°C° 0 mm 1 mps 757 mmHg 35%
15:00 +31°C° 0 mm 2 mps 757 mmHg 33%
16:00 +30°C° 0 mm 1 mps 757 mmHg 37%
17:00 +28°C° 0 mm 1 mps 757 mmHg 41%
18:00 +27°C° 0 mm 1 mps 757 mmHg 44%
19:00 +26°C° 0 mm 1 mps 757 mmHg 46%
20:00 +26°C° 0 mm 1 mps 758 mmHg 48%
21:00 +25°C° 0 mm 1 mps 758 mmHg 50%
22:00 +25°C° 0 mm 1 mps 758 mmHg 52%
23:00 +22°C° 0 mm 0 mps 758 mmHg 54%

Day after tomorrow, 3 December, Thursday

Time Temperature Precipitation Wind Pressure Humidity
00:00 +22°C° 0 mm 0 mps 758 mmHg 56%
01:00 +21°C° 0 mm 0 mps 758 mmHg 57%
02:00 +21°C° 0 mm 0 mps 758 mmHg 58%
03:00 +21°C° 0 mm 0 mps 758 mmHg 59%
04:00 +22°C° 0 mm 1 mps 758 mmHg 61%
05:00 +22°C° 0 mm 1 mps 758 mmHg 63%
06:00 +21°C° 0 mm 1 mps 758 mmHg 64%
07:00 +23°C° 0 mm 1 mps 759 mmHg 60%
08:00 +24°C° 0 mm 1 mps 760 mmHg 56%
09:00 +26°C° 0 mm 1 mps 760 mmHg 52%
10:00 +27°C° 0 mm 1 mps 760 mmHg 47%
11:00 +29°C° 0 mm 1 mps 759 mmHg 42%
12:00 +30°C° 0 mm 1 mps 759 mmHg 38%
13:00 +30°C° 0 mm 1 mps 758 mmHg 35%
14:00 +31°C° 0 mm 2 mps 757 mmHg 32%
15:00 +31°C° 0 mm 2 mps 757 mmHg 29%
16:00 +29°C° 0 mm 2 mps 757 mmHg 33%
17:00 +28°C° 0 mm 2 mps 757 mmHg 36%
18:00 +27°C° 0 mm 2 mps 757 mmHg 39%
19:00 +26°C° 0 mm 2 mps 757 mmHg 42%
20:00 +25°C° 0 mm 1 mps 758 mmHg 45%
21:00 +25°C° 0 mm 1 mps 758 mmHg 47%
22:00 +24°C° 0 mm 1 mps 758 mmHg 49%
23:00 +23°C° 0 mm 1 mps 758 mmHg 52%

4 December, Friday

Time Temperature Precipitation Wind Pressure Humidity
00:00 +23°C° 0 mm 1 mps 758 mmHg 54%
01:00 +23°C° 0 mm 1 mps 758 mmHg 56%
02:00 +22°C° 0 mm 1 mps 757 mmHg 58%
03:00 +22°C° 0 mm 1 mps 757 mmHg 59%
04:00 +22°C° 0 mm 1 mps 757 mmHg 61%
05:00 +21°C° 0 mm 1 mps 758 mmHg 63%
06:00 +21°C° 0 mm 1 mps 758 mmHg 64%
07:00 +22°C° 0 mm 1 mps 758 mmHg 61%
08:00 +24°C° 0 mm 2 mps 759 mmHg 57%
09:00 +25°C° 0 mm 2 mps 759 mmHg 53%
10:00 +27°C° 0 mm 1 mps 759 mmHg 47%
11:00 +28°C° 0 mm 1 mps 758 mmHg 42%
12:00 +30°C° 0 mm 1 mps 758 mmHg 36%
13:00 +30°C° 0 mm 1 mps 757 mmHg 34%
14:00 +30°C° 0 mm 1 mps 757 mmHg 31%
15:00 +30°C° 0 mm 1 mps 756 mmHg 29%
16:00 +29°C° 0 mm 1 mps 756 mmHg 32%
17:00 +28°C° 0 mm 1 mps 756 mmHg 35%
18:00 +26°C° 0 mm 1 mps 756 mmHg 39%
19:00 +26°C° 0 mm 1 mps 757 mmHg 41%
20:00 +25°C° 0 mm 1 mps 757 mmHg 43%
21:00 +24°C° 0 mm 1 mps 758 mmHg 45%
22:00 +24°C° 0 mm 1 mps 758 mmHg 48%
23:00 +23°C° 0 mm 1 mps 758 mmHg 51%

5 December, Saturday

Time Temperature Precipitation Wind Pressure Humidity
00:00 +23°C° 0 mm 1 mps 758 mmHg 53%
01:00 +22°C° 0 mm 1 mps 758 mmHg 55%
02:00 +22°C° 0 mm 1 mps 758 mmHg 56%
03:00 +22°C° 0 mm 1 mps 758 mmHg 57%
04:00 +21°C° 0 mm 1 mps 758 mmHg 59%
05:00 +21°C° 0 mm 1 mps 758 mmHg 60%
06:00 +21°C° 0 mm 1 mps 758 mmHg 62%
07:00 +21°C° 0 mm 2 mps 759 mmHg 59%
08:00 +23°C° 0 mm 2 mps 759 mmHg 55%
09:00 +25°C° 0 mm 2 mps 760 mmHg 52%
10:00 +26°C° 0 mm 1 mps 759 mmHg 47%
11:00 +28°C° 0 mm 1 mps 759 mmHg 42%
12:00 +29°C° 0 mm 1 mps 758 mmHg 37%
13:00 +29°C° 0 mm 1 mps 758 mmHg 34%
14:00 +30°C° 0 mm 1 mps 757 mmHg 31%
15:00 +30°C° 0 mm 1 mps 757 mmHg 28%
16:00 +29°C° 0 mm 1 mps 757 mmHg 32%
17:00 +27°C° 0 mm 1 mps 757 mmHg 35%
18:00 +26°C° 0 mm 1 mps 757 mmHg 39%
19:00 +25°C° 0 mm 1 mps 757 mmHg 40%
20:00 +25°C° 0 mm 1 mps 758 mmHg 42%
21:00 +24°C° 0 mm 1 mps 758 mmHg 44%
22:00 +24°C° 0 mm 1 mps 758 mmHg 47%
23:00 +23°C° 0 mm 1 mps 758 mmHg 51%

6 December, Sunday

Time Temperature Precipitation Wind Pressure Humidity
00:00 +22°C° 0 mm 1 mps 758 mmHg 54%
01:00 +22°C° 0 mm 1 mps 758 mmHg 55%
02:00 +22°C° 0 mm 1 mps 758 mmHg 57%
03:00 +22°C° 0 mm 1 mps 758 mmHg 58%
04:00 +21°C° 0 mm 1 mps 758 mmHg 59%
05:00 +21°C° 0 mm 1 mps 759 mmHg 61%
06:00 +20°C° 0 mm 1 mps 759 mmHg 62%
07:00 +22°C° 0 mm 1 mps 760 mmHg 59%
08:00 +23°C° 0 mm 1 mps 760 mmHg 55%
09:00 +24°C° 0 mm 2 mps 761 mmHg 52%
10:00 +26°C° 0 mm 1 mps 761 mmHg 47%
11:00 +28°C° 0 mm 1 mps 760 mmHg 42%
12:00 +27°C° 0 mm 0 mps 760 mmHg 36%
13:00 +30°C° 0 mm 1 mps 759 mmHg 34%
14:00 +30°C° 0 mm 1 mps 758 mmHg 31%
15:00 +30°C° 0 mm 2 mps 758 mmHg 29%
16:00 +29°C° 0 mm 2 mps 758 mmHg 32%
17:00 +27°C° 0 mm 2 mps 758 mmHg 36%
18:00 +26°C° 0 mm 2 mps 758 mmHg 39%
19:00 +25°C° 0 mm 2 mps 758 mmHg 42%
20:00 +25°C° 0 mm 2 mps 759 mmHg 44%
21:00 +24°C° 0 mm 1 mps 759 mmHg 47%
22:00 +23°C° 0 mm 1 mps 759 mmHg 49%
23:00 +23°C° 0 mm 1 mps 759 mmHg 51%
Show more

We Need Your Consent

Meteoprog and our Service Providers may store and access personal data such as cookies, device identifiers or other similar technologies on your device and process such data to personalise content and ads, as well as provide social media features and to analyse the traffic.

  • Store and/or access information on your device

    Cookies, device identifiers or other information can be stored or accessed on your device for the purposes indicated above.

  • Personalised ads and content, ad and content measurement, audience insights, and products development

    Ads and content can be personalised based on a profile. More data can be added to better personalise ads and content. Ad and content performance can be measured. Insights about the audience who saw the ads and content can be derived. Such data can be used to develop or improve user’s experience, systems and software.

By clicking ‘I Agree’ you will allow the use of indicated cookies, device identifiers, web beacons or other similar technologies. Your settings can be changed in the browser on your device.

For certain purposes, legitimate interests may be relied on, rather than consent. You can read more about this in our Privacy and Cookie Policy.